DIANT EDDL-EDDL

Flight info

Callsign DIANT
Flight time 0h 8m
Altitude
Route EDDL/05R
Aircraft DA42

Departure

Time 2026-05-05 20:03
Airport Düsseldorf Airport (EDDL)

Arrival

Time 2026-05-05 20:12
Airport Düsseldorf Airport (EDDL)
Time Latitude Longitude Altitude Speed Heading
2026-05-05 20:03 51.12368 7.20369 2455 ft 183 kts 235°
2026-05-05 20:03 51.11662 7.18668 2460 ft 186 kts 235°
2026-05-05 20:03 51.10983 7.16923 2448 ft 185 kts 245°
2026-05-05 20:03 51.10871 7.14918 2446 ft 184 kts 283°
2026-05-05 20:04 51.11414 7.13096 2448 ft 183 kts 301°
2026-05-05 20:04 51.12037 7.11335 2444 ft 182 kts 302°
2026-05-05 20:04 51.12626 7.09549 2445 ft 182 kts 301°
2026-05-05 20:04 51.13207 7.07746 2453 ft 183 kts 301°
2026-05-05 20:05 51.13789 7.05954 2462 ft 181 kts 301°
2026-05-05 20:05 51.14375 7.04187 2462 ft 180 kts 301°
2026-05-05 20:05 51.14961 7.02427 2471 ft 181 kts 301°
2026-05-05 20:05 51.15552 7.00647 2469 ft 183 kts 301°
2026-05-05 20:06 51.16146 6.98848 2475 ft 184 kts 301°
2026-05-05 20:06 51.16744 6.97040 2476 ft 184 kts 301°
2026-05-05 20:06 51.17340 6.95243 2475 ft 182 kts 301°
2026-05-05 20:06 51.17935 6.93462 2476 ft 181 kts 301°
2026-05-05 20:07 51.18518 6.91687 2477 ft 180 kts 301°
2026-05-05 20:07 51.19104 6.89925 2481 ft 181 kts 301°
2026-05-05 20:07 51.19691 6.88161 2380 ft 185 kts 301°
2026-05-05 20:07 51.20301 6.86341 2306 ft 186 kts 301°
2026-05-05 20:08 51.20897 6.84524 2258 ft 185 kts 301°
2026-05-05 20:08 51.21492 6.82695 2158 ft 187 kts 300°
2026-05-05 20:08 51.22035 6.80814 2107 ft 187 kts 297°
2026-05-05 20:08 51.22541 6.78903 2045 ft 187 kts 295°
2026-05-05 20:09 51.22995 6.76971 1990 ft 186 kts 294°
2026-05-05 20:09 51.23440 6.75032 1906 ft 186 kts 294°
2026-05-05 20:09 51.23885 6.73087 1794 ft 188 kts 294°
2026-05-05 20:09 51.24326 6.71139 1751 ft 184 kts 294°
2026-05-05 20:10 51.24765 6.69220 1687 ft 181 kts 302°
2026-05-05 20:10 51.25643 6.68967 1669 ft 135 kts 42°
2026-05-05 20:10 51.25946 6.70338 1447 ft 130 kts 65°
2026-05-05 20:10 51.26363 6.71603 1167 ft 129 kts 57°
2026-05-05 20:11 51.26839 6.72823 886 ft 130 kts 50°
2026-05-05 20:11 51.27348 6.73934 582 ft 111 kts 50°
2026-05-05 20:11 51.27791 6.74852 260 ft 97 kts 49°
2026-05-05 20:11 51.28170 6.75642 119 ft 73 kts 47°
2026-05-05 20:12 51.28362 6.76103 118 ft 22 kts 108°
2026-05-05 20:12 51.28285 6.76033 120 ft 14 kts 227°
2026-05-05 20:12 51.28149 6.75917 122 ft 25 kts 204°
2026-05-05 20:12 51.28008 6.75765 120 ft 26 kts 233°
2026-05-05 20:13 51.27898 6.75535 116 ft 31 kts 232°
2026-05-05 20:13 51.27749 6.75226 116 ft 28 kts 227°
2026-05-05 20:13 51.27644 6.75218 117 ft 16 kts 149°
2026-05-05 20:13 51.27602 6.75278 118 ft 0 kts 63°